Pasco, WA
on Friday, February 8, 2013

Friday
Previous Day Next Day
Daily Summary
 ActualAverageRecord
Temperature
Mean Temperature °F 38°F  
Max Temperature 49°F 47°F 66°F (1996)
Min Temperature 24°F 29°F 5°F (1989)
Degree Days
Heating Degree Days 28 27  
Month to date heating degree days 205 222  
Since 1 July heating degree days 3116 3373  
Cooling Degree Days 0 0  
Month to date cooling degree days 0 0  
Year to date cooling degree days 0 0  
Moisture
Dew Point 27°F   
Average Humidity 69    
Maximum Humidity 92    
Minimum Humidity 45    
Precipitation
Precipitation 0.00 in in 0.36 in (2002)
Month to date precipitation T  
Year to date precipitation 0.36  
Snow
Snow 0.00 in in in ()
Snow Depth 0.00 in   
Wind
Wind Speed 2 mph   
Max Wind Speed 9 mph   
Max Gust Speed 12 mph   
Visibility 10 miles   
Events     

Key: T is trace of precipitation, MM is missing value
Source: NWS Daily Summary
Time(PST)TemperatureDew PointHumidity Pressure Visibility Wind DirectionWind SpeedGust SpeedPrecipitationEvents Conditions
12:53 AM 24.1°F 23.0°F 96% 30.11 in 10.0 miles NNE 3.5 mph - N/A   Clear
1:53 AM 25.0°F 23.0°F 92% 30.12 in 10.0 miles Calm Calm - N/A   Mostly Cloudy
2:53 AM 25.0°F 23.0°F 92% 30.14 in 10.0 miles NW 3.5 mph - N/A   Mostly Cloudy
3:53 AM 28.0°F 26.1°F 92% 30.15 in 10.0 miles Calm Calm - N/A   Overcast
4:53 AM 28.9°F 27.0°F 92% 30.16 in 10.0 miles East 3.5 mph - N/A   Overcast
5:53 AM 28.9°F 27.0°F 92% 30.17 in 10.0 miles Calm Calm - N/A   Mostly Cloudy
6:53 AM 28.0°F 26.1°F 92% 30.17 in 10.0 miles Calm Calm - N/A   Scattered Clouds
7:53 AM 28.0°F 26.1°F 92% 30.19 in 10.0 miles Calm Calm - N/A   Clear
9:53 AM 36.0°F 30.0°F 79% 30.21 in 10.0 miles Calm Calm - N/A   Clear
10:53 AM 43.0°F 28.0°F 56% 30.22 in 10.0 miles Variable 3.5 mph - N/A   Partly Cloudy
11:53 AM 45.0°F 28.0°F 52% 30.20 in 10.0 miles Calm Calm - N/A   Partly Cloudy
12:53 PM 46.0°F 27.0°F 47% 30.18 in 10.0 miles Variable 3.5 mph - N/A   Clear
1:53 PM 48.0°F 28.0°F 46% 30.17 in 10.0 miles Calm Calm - N/A   Clear
2:53 PM 48.9°F 30.9°F 50% 30.17 in 10.0 miles NNE 5.8 mph - N/A   Overcast
3:53 PM 48.0°F 30.0°F 50% 30.17 in 10.0 miles NNE 4.6 mph - N/A   Clear
4:53 PM 45.0°F 30.9°F 58% 30.16 in 10.0 miles NE 3.5 mph - N/A   Clear
5:53 PM 37.0°F 30.9°F 79% 30.16 in 10.0 miles East 4.6 mph - N/A   Clear
6:53 PM 37.0°F 32.0°F 82% 30.17 in 10.0 miles Calm Calm - N/A   Clear
7:53 PM 28.0°F 26.1°F 92% 30.17 in 10.0 miles Calm Calm - N/A   Clear
8:53 PM 28.0°F 26.1°F 92% 30.18 in 10.0 miles Calm Calm - N/A   Clear
9:53 PM 26.1°F 24.1°F 92% 30.18 in 10.0 miles Calm Calm - N/A   Clear
10:53 PM 25.0°F 23.0°F 92% 30.17 in 10.0 miles North 3.5 mph - N/A   Clear
11:53 PM 25.0°F 21.9°F 88% 30.18 in 10.0 miles Calm Calm - N/A   Clear
Moon Phase
Feb. 08 Feb. 10 Feb. 17 Feb. 25 Mar. 04
Sunrise:07:09 AM (PST) Moon Rise:05:44 AM (PST)2/8
Sunset:05:12 PM (PST) Moon Set:03:50 PM (PST)2/8

Copyright © 2014 The Weather Underground, Inc.